Location: Cisewo
(53.3833°N, 14.9000°E)
Time: 13:35:30
(UTC+00:00)

NOSS 3-1 (C) - Pass Details

Date: 18 April 2021
Orbit: 732 x 1476 km, 63.4° (Epoch: 18 April)

Event Time Altitude Azimuth Distance (km) Brightness Sun altitude
Rises 22:17:17 0° 312° (NW) 3,901 7.5 -24.8°
Reaches altitude 10° 22:19:53 10° 307° (NW) 3,045 6.7 -24.9°
Maximum altitude 22:26:52 46° 237° (WSW) 1,673 4.5 -25.1°
Enters shadow 22:28:43 40° 205° (SSW) 1,848 4.5 -25.1°
